Change the Weather History Date:

Sunday, July 28, 2013

  Actual Average Record
Temperature  
Mean Temperature 80 °F -  
Max Temperature 95 °F - - ()
Min Temperature 66 °F - - ()
Cooling Degree Days 16    
Growing Degree Days 30 (Base 50)    
Moisture  
Dew Point 63 °F    
Average Humidity 55    
Maximum Humidity 83    
Minimum Humidity 32    
Precipitation  
Precipitation 0.00 in - - ()
Sea Level Pressure  
Sea Level Pressure 29.92 in    
Wind  
Wind Speed 5 mph ()    
Max Wind Speed 13 mph    
Max Gust Speed -    
T = Trace of Precipitation, MM = Missing Value Source: Averaged Metar Reports

Daily Weather History Graph

Daily Weather History Graph

Search for Another Location

Airport or City:

Trip Planner

Search our weather history database for the weather conditions in past years. The results will help you decide how hot, cold, wet, or windy it might be!

Date:

Astronomy

Jul. 28, 2013 Rise Set
Actual Time 5:16 AM CEST 8:36 PM CEST
Civil Twilight 4:37 AM CEST 9:15 PM CEST
Nautical Twilight 3:46 AM CEST 10:06 PM CEST
Astronomical Twilight 2:38 AM CEST 11:12 PM CEST
Moon 11:03 PM CEST 12:22 PM CEST
Length of Visible Light 16h 37m
Length of Day
15h 20m
Waning Gibbous, 63% of the Moon is Illuminated
Jul 28
Waning Gibbous
Jul 29
Last Quarter
Aug 6
New
Aug 14
First Quarter
Aug 21
Full

Hourly Weather History & Observations

Time (CEST) Temp. Heat Index Dew Point Humidity Pressure Visibility Wind Dir Wind Speed Gust Speed Precip Events Conditions
12:00 AM 71.6 °F - 62.6 °F 73% 29.92 in - ENE 5.8 mph - N/A   Clear
1:00 AM 73.4 °F - 62.6 °F 69% 29.92 in - ENE 4.6 mph - N/A   Clear
2:00 AM 71.6 °F - 62.6 °F 73% 29.92 in - Variable 2.3 mph - N/A   Clear
3:00 AM 69.8 °F - 60.8 °F 73% 29.92 in - Variable 2.3 mph - N/A   Clear
4:00 AM 68.0 °F - 60.8 °F 78% 29.92 in - Variable 1.2 mph - N/A   Clear
5:00 AM 66.2 °F - 60.8 °F 83% 29.92 in - ENE 3.5 mph - N/A   Clear
6:00 AM 66.2 °F - 60.8 °F 83% 29.92 in - Calm Calm - N/A   Clear
7:00 AM 71.6 °F - 64.4 °F 78% 29.92 in - Variable 1.2 mph - N/A   Clear
8:00 AM 77.0 °F - 64.4 °F 65% 29.95 in - Variable 2.3 mph - N/A   Clear
9:00 AM 82.4 °F 83.9 °F 64.4 °F 54% 29.95 in - SSE 3.5 mph - N/A   Clear
10:00 AM 84.2 °F 85.6 °F 64.4 °F 51% 29.95 in - South 9.2 mph - N/A   Clear
10:25 AM 86.0 °F 87.3 °F 64.4 °F 48% 29.95 in - SSW 11.5 mph - N/A   Clear
11:00 AM 87.8 °F 90.4 °F 66.2 °F 49% 29.95 in - SSW 10.4 mph - N/A   Clear
12:00 PM 89.6 °F 91.1 °F 64.4 °F 43% 29.92 in - South 11.5 mph - N/A   Clear
1:00 PM 93.2 °F 94.9 °F 64.4 °F 38% 29.92 in - South 9.2 mph - N/A   Clear
2:00 PM 93.2 °F 94.1 °F 62.6 °F 36% 29.92 in - SSW 10.4 mph - N/A   Clear
3:00 PM 95.0 °F 96.0 °F 62.6 °F 34% 29.92 in - SSW 12.7 mph - N/A   Clear
4:00 PM 95.0 °F 96.0 °F 62.6 °F 34% 29.92 in - SSW 10.4 mph - N/A   Clear
5:00 PM 95.0 °F 95.2 °F 60.8 °F 32% 29.89 in - South 11.5 mph - N/A   Clear
6:00 PM 95.0 °F 96.0 °F 62.6 °F 34% 29.89 in - South 10.4 mph - N/A   Clear
7:00 PM 93.2 °F 94.1 °F 62.6 °F 36% 29.89 in - South 6.9 mph - N/A   Clear
8:00 PM 89.6 °F 91.1 °F 64.4 °F 43% 29.89 in - SSE 4.6 mph - N/A   Clear
9:00 PM 84.2 °F 85.6 °F 64.4 °F 51% 29.89 in - SE 4.6 mph - N/A   Clear
10:00 PM 80.6 °F 81.8 °F 62.6 °F 54% 29.92 in - South 2.3 mph - N/A   Clear
11:00 PM 78.8 °F - 62.6 °F 57% 29.92 in - Variable 2.3 mph - N/A   Clear